Location: New Frontier Mobile Home Park
(32.8448°N, 116.9675°W)
Time: 22:38:17
(UTC+00:00)

MetOp-A - Pass Details

Date: 14 July 2020
Orbit: 819 x 821 km, 98.5° (Epoch: 05 August)

Event Time Altitude Azimuth Distance (km) Brightness Sun altitude
Exits shadow 04:10:39 - 174° (S) 2,611 6.4 -13.9°
Reaches altitude 10° 04:11:10 10° 175° (S) 2,408 6.2 -13.9°
Maximum altitude 04:16:28 68° 258° (WSW) 880 4.4 -14.8°
Drops below altitude 10° 04:21:48 10° 342° (NNW) 2,421 7.5 -15.7°
Sets 04:24:11 0° 345° (NNW) 3,356 8.3 -16.1°
